Location: Skymont Scout Reservation
(35.4344°N, 85.8742°W)
Time: 00:37:03
(UTC-05:00)

ISS - All Passes

Search period start: 25 October 2014 00:00
Search period end: 03 November 2014 23:00
Orbit: 412 x 416 km, 51.6° (Epoch: 24 October)

Date Brightness Start Highest point End Pass type
(mag) Time Alt. Az. Time Alt. Az. Time Alt. Az.
25 Oct - 11:20:02 10° S 11:22:41 22° SE 11:25:21 10° ENE daylight
25 Oct - 12:56:17 10° W 12:59:15 30° NW 13:02:15 10° NNE daylight
25 Oct - 17:51:39 10° N 17:53:08 12° NNE 17:54:38 10° NE daylight
25 Oct - 19:26:56 10° NW 19:30:17 82° NE 19:33:36 10° SE visible
26 Oct - 10:32:23 10° SSE 10:33:40 12° SE 10:34:57 10° ESE daylight
26 Oct - 12:06:43 10° WSW 12:09:58 54° NW 12:13:15 10° NE daylight
26 Oct - 13:47:13 10° NNW 13:47:17 10° NNW 13:47:20 10° NNW daylight
26 Oct - 18:37:50 10° NW 18:41:02 42° NE 18:44:12 10° ESE visible
26 Oct - 20:15:24 10° W 20:17:26 15° SW 20:19:28 10° SSW visible
27 Oct - 11:17:25 10° SW 11:20:43 76° SE 11:24:03 10° NE daylight
27 Oct - 12:55:52 10° WNW 12:57:45 14° NNW 12:59:39 10° N daylight
27 Oct - 17:48:51 10° NNW 17:51:40 25° NNE 17:54:28 10° E daylight
27 Oct - 19:25:24 10° WNW 19:28:20 29° SW 19:31:15 10° SSE visible
28 Oct - 10:28:25 10° SSW 10:31:30 36° SE 10:34:35 10° ENE daylight
28 Oct - 12:05:38 10° W 12:08:15 21° NNW 12:10:53 10° NNE daylight
28 Oct - 16:59:59 10° NNW 17:02:11 16° NNE 17:04:22 10° ENE daylight
28 Oct - 18:35:50 10° NW 18:39:07 59° SW 18:42:23 10° SE visible
29 Oct - 09:39:53 10° S 09:42:18 19° SE 09:44:44 10° E daylight
29 Oct - 11:15:43 10° WSW 11:18:47 34° NW 11:21:52 10° NNE daylight
29 Oct - 16:11:29 10° N 16:12:35 11° NNE 16:13:42 10° NE daylight
29 Oct - 17:46:28 10° NW 17:49:47 68° NE 17:53:06 10° SE daylight
30 Oct - 10:26:04 10° WSW 10:29:22 64° NW 10:32:40 10° NE daylight
30 Oct - 12:05:37 10° NW 12:06:35 11° NNW 12:07:33 10° N daylight
30 Oct - 16:57:15 10° NNW 17:00:21 36° NE 17:03:27 10° ESE daylight
30 Oct - 18:34:28 10° W 18:36:49 18° SW 18:39:10 10° S visible
31 Oct - 09:36:42 10° SW 09:39:58 62° SE 09:43:15 10° NE daylight
31 Oct - 11:14:47 10° WNW 11:16:55 16° NNW 11:19:02 10° NNE daylight
31 Oct - 16:08:08 10° NNW 16:10:48 22° NNE 16:13:28 10° E daylight
31 Oct - 17:44:28 10° WNW 17:47:32 35° SW 17:50:35 10° SSE daylight
01 Nov - 08:47:40 10° SSW 08:50:36 30° SE 08:53:33 10° ENE daylight
01 Nov - 10:24:30 10° W 10:27:16 24° NNW 10:30:03 10° NNE daylight
01 Nov - 15:19:12 10° N 15:21:09 15° NNE 15:23:05 10° ENE daylight
01 Nov - 16:54:50 10° NW 16:58:09 73° SW 17:01:26 10° SE daylight
02 Nov - 06:59:11 10° SSE 07:01:16 16° SE 07:03:21 10° E daylight
02 Nov - 08:34:31 10° WSW 08:37:40 40° NW 08:40:50 10° NE daylight
02 Nov - 13:30:59 10° NNE 13:31:22 10° NNE 13:31:45 10° NNE daylight
02 Nov - 15:05:22 10° NW 15:08:38 55° NE 15:11:54 10° ESE daylight
02 Nov - 16:43:47 10° WSW 16:44:55 11° SW 16:46:02 10° SSW daylight
03 Nov - 07:44:48 10° SW 07:48:06 79° NW 07:51:25 10° NE daylight
03 Nov - 09:23:50 10° NW 09:25:14 12° NNW 09:26:38 10° N daylight
03 Nov - 14:16:01 10° NNW 14:19:01 30° NE 14:22:00 10° E daylight
03 Nov - 15:52:55 10° WNW 15:55:33 22° SW 15:58:10 10° S daylight
